Other Public Products
Issued by NWS Charleston, SC

Home | Current Version | Previous Version | Text Only | Print | Product List | Glossary On
Versions: 1 2 3 4 5 6 7 8 9 10 11 12 13 14 15 16 17 18 19 20 21 22 23 24 25 26 27 28 29 30 31 32 33 34 35 36 37 38 39 40 41 42 43 44 45 46 47 48 49 50
000
FPUS82 KCHS 202339
OPUCHS

TEST...KCHS/KSAV Gateway Observations...TEST
National Weather Service Charleston SC
700 PM EDT WED SEP 20 2017

NOTE: "fair" indicates few or no clouds below 12,000 feet with no
significant weather and/or obstructions to visibility.

SCZ050-WAZ558-NCZ071-TXZ119-213-PAZ071-DCZ001-FLZ074-172-MI076-
NYZ176-178-MAZ016-IL014-TNZ027-NJZ106-GAZ044-MD014-210000-

...Gateway Observations for Charleston International...

CITY           SKY/WX    TMP DP  RH WIND       PRES   REMARKS
Chas Airport   PTCLDY    82  72  71 S9        29.97R
Seattle        PTSUNNY   56  47  71 SW10      29.75R
Charlotte      PTCLDY    85  67  54 SW3       29.98S
Dallas DFW     MOSUNNY   96  70  42 S20G26    29.79S HX 102
Dallas Love    MOSUNNY   96  69  41 S14G24    29.80S HX 102
Philladelphia  PTCLDY    80  64  58 NE10G21   29.90S
Wash National  PTCLDY    84  63  49 NW9       29.93S
Baltimore      PTCLDY    81  61  50 NW3       29.93R
Miami          MOCLDY    86  71  60 SE10      29.93S HX  91
Detroit        PTCLDY    78  68  71 SE6       29.99S
Newark         MOCLDY    79  63  57 N12       29.90S
Laguardia      MOCLDY    78  65  63 N16       29.89S
J F K          MOCLDY    78  64  61 N14       29.89S
Boston Logan   CLOUDY    71  66  84 N24       29.87S
Ft. Lauderdale MOCLDY    85  74  69 E12       29.93S HX  92
Chicago O`Hare CLEAR     90  65  43 S23       29.85R HX  92
Chicago Midway PTCLDY    91  66  43 S15G25    29.86R HX  93
Houston Bush   MOSUNNY   88  75  65 S13       29.88S HX  97
Houston Hobby  TSTM      83  78  85 CALM      29.88R HX  93
Nashville      MOCLDY    87  70  56 NE6       30.00R HX  92
Atlanta        MOCLDY    82  65  56 W8        30.01R

$$

GAZ044-118-TXZ119-213-NCZ071-DCZ001-MDZ014-506-PAZ021-071-NJZ106-
NYZ176-178-MAZ106-OHZ011-021-055-MIZ076-KYZ091-ILZ014-INZ047-
MNZ060-ONZ431-210000-

...Gateway Observations for Savannah International...

CITY           SKY/WX    TMP DP  RH WIND       PRES   REMARKS
Savannah Arpt  MOCLDY    79  69  71 S7        29.98R
Atlanta        MOCLDY    82  65  56 W8        30.01R
Charlotte      PTCLDY    85  67  54 SW3       29.98S
Dallas DFW     MOSUNNY   96  70  42 S20G26    29.79S HX 102
Houston Bush   MOSUNNY   88  75  65 S13       29.88S HX  97
Wash National  PTCLDY    84  63  49 NW9       29.93S
Wash Dulles    PTCLDY    81  61  50 NW7       29.95R
Baltimore      PTCLDY    81  61  50 NW3       29.93R
Philadelphia   PTCLDY    80  64  58 NE10G21   29.90S
Newark         MOCLDY    79  63  57 N12       29.90S
Laguardia      MOCLDY    78  65  63 N16       29.89S
J F K          MOCLDY    78  64  61 N14       29.89S
Boston         CLOUDY    71  66  84 N24       29.87S
Pittsburg      PTCLDY    78  65  63 SW3       30.02R
Akron          CLOUDY    79  63  57 W3        30.02R
Cleveland      PTCLDY    80  62  54 N9        30.03R
Cincinnati     MOCLDY    81  67  62 W3        30.01S
Columbus       PTCLDY    79  66  66 CALM      30.00S
Detroit        PTCLDY    78  68  71 SE6       29.99S
Chicago O`Hare CLEAR     90  65  43 S23       29.85R HX  92
Minneapolis    SUNNY     73  50  44 W7        29.85S
Indianapolis   PTCLDY    86  69  56 S9        29.96S HX  90
Toronto Canada PTCLDY    73  63  68 SE6       30.02F

$$




USA.gov is the U.S. government's official web portal to all federal, state and local government web resources and services.